SCP
0 0 0 0 0 0 0 0 0 0 0 0 0 0 0 0 0 0 0 0 0 0
0 0 0 0 0 0 0 0 0 0 0 0 0 0 0 0 0 0 0 0 0 0
0 0 0 0 0 0 0 0 0 0 0 0 0 0 0 0 0 0 0 0 0 0
0 0 0 0 0 0 0 0 0 0 0 0 0 0 0 0 0 0 0 0 0 0
0 0 0 0 0 0 0 0 0 0 0 0 0 0 0 0 0 0 0 0 0 0
0 0 0 0 0 0 0 0 0 0 0 0 0 0 0 0 0 0 0 0 0 0
0 0 0 0 0 0 0 0 0 0 0 0 0 0 0 0 0 0 0 0 0 0
0 0 0 0 0 0 0 0 0 0 0 0 0 0 0 0 0 0 0 0 0 0
0 0 0 0 0 0 0 0 0 0 0 0 0 0 0 0 0 0 0 0 0 0
0 0 0 0 0 0 0 0 0 0 0 0 0 0 0 0 0 0 0 0 0 0
0 0 0 0 0 0 0 0 0 0 0 0 0 0 0 0 0 0 0 0 0 0
0 0 0 0 0 0 0 0 0 0 0 0 0 0 0 0 0 0 0 0 0 0
0 0 0 0 0 0 0 0 0 0 0 0 0 0 0 0 0 0 0 0 0 0
0 0 0 0 0 0 0 0 0 0 0 0 0 0 0 0 0 0 0 0 0 0
Wind_Speed_500mb
21 20 13 8 5 5 2 6 9 12 12 12 13 14 14 16 18 19 20 22 24 27
24 14 12 11 8 6 3 6 9 12 13 13 14 15 15 17 19 21 23 25 28 31
20 17 14 11 7 5 4 8 11 13 14 15 16 18 20 21 22 24 27 31 33 37
20 17 15 11 7 5 7 9 11 13 16 18 20 21 23 23 26 28 31 34 38 40
21 18 15 11 8 8 9 11 15 17 20 21 23 24 25 26 28 31 34 37 40 43
21 18 15 11 11 11 12 14 17 20 22 24 25 27 29 30 32 34 37 40 43 47
19 17 14 14 14 13 15 17 20 21 24 26 28 30 32 32 36 38 40 43 45 48
19 16 16 16 16 17 18 21 22 25 27 28 30 33 35 37 39 41 43 45 48 47
18 18 19 19 20 21 21 23 25 29 31 33 35 39 40 41 42 42 43 46 45 47
20 18 21 23 23 23 23 25 29 32 33 36 40 43 44 42 44 43 45 48 48 49
19 20 23 24 24 24 25 28 32 34 37 40 41 42 44 41 45 46 47 48 49 51
20 23 25 24 25 27 29 32 36 37 38 39 42 43 45 45 46 49 48 49 50 50
24 25 26 28 29 30 32 36 38 39 39 39 43 46 46 48 49 50 50 50 49 49
28 28 30 34 36 35 36 38 40 41 43 44 45 45 45 45 49 50 51 52 51 49
Wind_Direction_500mb
184 193 182 196 217 236 303 351 346 336 331 332 333 343 354 355 356 355 352 353 347 342
187 181 199 203 196 237 311 338 335 329 326 323 327 336 341 347 342 339 339 339 337 335
187 193 196 200 196 243 316 329 329 323 319 321 327 331 333 333 330 328 330 331 332 331
188 190 198 202 217 259 299 313 316 320 324 323 322 322 321 320 318 322 324 326 328 329
187 195 206 214 236 271 294 319 328 326 322 317 314 313 311 312 314 317 319 323 324 325
194 205 216 234 255 283 305 315 322 321 314 310 309 310 310 310 312 314 319 321 322 324
206 216 232 251 269 288 303 312 313 309 310 312 312 308 307 310 311 313 317 318 317 316
216 231 249 263 278 289 297 300 305 313 316 313 309 307 309 308 310 312 314 311 309 314
230 244 259 271 277 282 288 297 312 316 315 313 309 309 312 309 306 306 304 303 310 315
239 256 267 271 275 282 291 305 312 312 312 313 310 307 306 303 302 303 304 309 313 313
252 264 268 272 279 285 294 302 307 309 310 305 301 300 303 304 302 304 310 309 308 309
263 269 274 283 286 290 291 296 301 302 300 301 303 303 305 305 306 307 305 304 304 308
273 281 284 282 282 279 284 289 292 295 298 306 309 303 304 302 301 301 302 300 303 306
280 282 283 282 277 273 278 286 291 301 305 303 300 301 303 301 298 299 300 303 307 307
Wind_Speed_850mb
21 20 13 8 5 5 2 6 9 12 12 12 13 14 14 16 18 19 20 22 24 27
24 14 12 11 8 6 3 6 9 12 13 13 14 15 15 17 19 21 23 25 28 31
20 17 14 11 7 5 4 8 11 13 14 15 16 18 20 21 22 24 27 31 33 37
20 17 15 11 7 5 7 9 11 13 16 18 20 21 23 23 26 28 31 34 38 40
21 18 15 11 8 8 9 11 15 17 20 21 23 24 25 26 28 31 34 37 40 43
21 18 15 11 11 11 12 14 17 20 22 24 25 27 29 30 32 34 37 40 43 47
19 17 14 14 14 13 15 17 20 21 24 26 28 30 32 32 36 38 40 43 45 48
19 16 16 16 16 17 18 21 22 25 27 28 30 33 35 37 39 41 43 45 48 47
18 18 19 19 20 21 21 23 25 29 31 33 35 39 40 41 42 42 43 46 45 47
20 18 21 23 23 23 23 25 29 32 33 36 40 43 44 42 44 43 45 48 48 49
19 20 23 24 24 24 25 28 32 34 37 40 41 42 44 41 45 46 47 48 49 51
20 23 25 24 25 27 29 32 36 37 38 39 42 43 45 45 46 49 48 49 50 50
24 25 26 28 29 30 32 36 38 39 39 39 43 46 46 48 49 50 50 50 49 49
28 28 30 34 36 35 36 38 40 41 43 44 45 45 45 45 49 50 51 52 51 49
Wind_Direction_850mb
184 193 182 196 217 236 303 351 346 336 331 332 333 343 354 355 356 355 352 353 347 342
187 181 199 203 196 237 311 338 335 329 326 323 327 336 341 347 342 339 339 339 337 335
187 193 196 200 196 243 316 329 329 323 319 321 327 331 333 333 330 328 330 331 332 331
188 190 198 202 217 259 299 313 316 320 324 323 322 322 321 320 318 322 324 326 328 329
187 195 206 214 236 271 294 319 328 326 322 317 314 313 311 312 314 317 319 323 324 325
194 205 216 234 255 283 305 315 322 321 314 310 309 310 310 310 312 314 319 321 322 324
206 216 232 251 269 288 303 312 313 309 310 312 312 308 307 310 311 313 317 318 317 316
216 231 249 263 278 289 297 300 305 313 316 313 309 307 309 308 310 312 314 311 309 314
230 244 259 271 277 282 288 297 312 316 315 313 309 309 312 309 306 306 304 303 310 315
239 256 267 271 275 282 291 305 312 312 312 313 310 307 306 303 302 303 304 309 313 313
252 264 268 272 279 285 294 302 307 309 310 305 301 300 303 304 302 304 310 309 308 309
263 269 274 283 286 290 291 296 301 302 300 301 303 303 305 305 306 307 305 304 304 308
273 281 284 282 282 279 284 289 292 295 298 306 309 303 304 302 301 301 302 300 303 306
280 282 283 282 277 273 278 286 291 301 305 303 300 301 303 301 298 299 300 303 307 307